EW2835 Weather Reports


time (UTC)temp
F
wind
direction
speed
knots
gust
knots
rain 1hr
in
rain 24hr
in
rain mn
in
humidity
%
barometer
mb
20260504000029 67 296 0.9 6.1 0.00 0.00 0.00 47 1010.6
20260503234544 68 311 1.7 7.0 0.00 0.00 0.00 44 1010.7
20260503233027 68 303 1.7 6.1 0.00 0.00 0.00 44 1010.6
20260503231528 69 251 1.7 6.1 0.00 0.00 0.00 43 1010.6
20260503230034 69 248 1.7 6.1 0.00 0.00 0.00 43 1010.4
20260503224525 70 288 1.7 7.0 0.00 0.00 0.00 43 1010.5
20260503223023 70 272 3.5 10.4 0.00 0.00 0.00 43 1010.6
20260503221522 69 275 2.6 13.0 0.00 0.00 0.00 45 1010.4
20260503220035 64 269 2.6 7.8 0.00 0.00 0.00 55 1010.2
20260503214513 63 290 0.0 0.9 0.00 0.00 0.00 65 1010.4
20260503213011 64 290 0.0 0.0 0.00 0.00 0.00 63 1010.1
20260503211509 65 290 0.0 0.9 0.00 0.00 0.00 61 1010.2
20260503210009 66 290 0.0 0.0 0.00 0.00 0.00 56 1010.0
20260503204509 67 290 0.0 0.0 0.00 0.00 0.00 54 1010.0
20260503203018 68 290 0.0 0.0 0.00 0.00 0.00 49 1010.1
20260503201506 69 290 0.0 1.7 0.00 0.00 0.00 46 1009.8
20260503200007 70 265 0.0 4.3 0.00 0.00 0.00 46 1010.0
20260503194506 69 263 0.9 3.5 0.00 0.00 0.00 46 1009.9
20260503193006 67 281 0.9 5.2 0.00 0.00 0.00 51 1010.0
20260503191510 67 169 0.0 0.0 0.00 0.00 0.00 57 1009.7
20260503190002 68 169 0.0 0.0 0.00 0.00 0.00 55 1009.7
20260503184502 69 169 0.0 0.0 0.00 0.00 0.00 53 1009.5
20260503183001 70 169 0.0 0.0 0.00 0.00 0.00 52 1009.4
20260503181611 71 169 0.0 0.0 0.00 0.00 0.00 48 1009.3
20260503180100 72 169 0.0 0.0 0.00 0.00 0.00 47 1009.3
20260503174559 74 169 0.0 0.0 0.00 0.00 0.00 44 1009.3
20260503173103 76 169 0.0 0.9 0.00 0.00 0.00 40 1009.3
20260503171558 77 204 0.0 1.7 0.00 0.00 0.00 36 1009.3
20260503081624 75 174 0.9 5.2 0.00 0.00 0.00 43 1013.1
20260503080109 74 188 2.6 5.2 0.00 0.00 0.00 43 1013.2
20260503071537 70 167 1.7 3.5 0.00 0.00 0.00 48 1013.3
20260503054515 59 170 0.0 0.9 0.00 0.00 0.00 63 1013.3
20260503053006 57 142 0.0 2.6 0.00 0.00 0.00 68 1013.4
20260503051501 55 130 0.0 1.7 0.00 0.00 0.00 71 1013.4
20260503050057 53 194 0.0 0.0 0.00 0.00 0.00 76 1013.3
20260503044557 50 191 0.0 1.7 0.00 0.00 0.00 79 1013.3
20260503043050 49 181 0.0 1.7 0.00 0.00 0.00 82 1013.2
20260503041550 46 205 0.0 0.9 0.00 0.00 0.00 87 1013.4
20260503040049 46 172 0.0 0.0 0.00 0.00 0.00 85 1013.5
20260503034549 46 172 0.0 0.0 0.00 0.00 0.00 85 1013.4
20260503033058 46 172 0.0 0.0 0.00 0.00 0.00 85 1013.4
20260503031552 46 172 0.0 0.0 0.00 0.00 0.00 85 1013.4
20260503030036 47 172 0.0 0.0 0.00 0.00 0.00 84 1013.3
20260503024534 47 172 0.0 0.0 0.00 0.00 0.00 83 1013.5
20260503023033 47 172 0.0 0.0 0.00 0.00 0.00 83 1013.6
20260503021531 48 172 0.0 0.0 0.00 0.00 0.00 82 1013.6
20260503020029 48 172 0.0 0.0 0.00 0.00 0.00 81 1013.7
20260503014538 48 172 0.0 0.0 0.00 0.00 0.00 81 1013.7
20260503013027 48 172 0.0 0.0 0.00 0.00 0.00 80 1013.8
20260503011522 49 172 0.0 0.0 0.00 0.00 0.00 80 1013.8
20260503010021 49 172 0.0 0.0 0.00 0.00 0.00 79 1014.0
20260503004521 49 172 0.0 0.0 0.00 0.00 0.00 79 1014.0
20260503003018 49 172 0.0 0.0 0.00 0.00 0.00 79 1014.2
20260503001517 50 172 0.0 0.0 0.00 0.00 0.00 79 1014.2